Location: Dal�� Lhota
(48.7500°N, 14.0167°E)
Time: 22:04:39
(UTC+00:00)

Vanguard 3 - Pass Details

Date: 05 August 2021
Orbit: 510 x 3260 km, 33.3° (Epoch: 19 September)

Event Time Altitude Azimuth Distance (km) Brightness Sun altitude
Rises 21:54:57 0° 274° (W) 6,795 12.2 -22.4°
Reaches altitude 10° 22:00:41 10° 263° (W) 6,023 11.7 -22.7°
Maximum altitude 22:13:55 24° 220° (SW) 5,094 10.8 -23.4°
Enters shadow 22:19:31 21° 198° (SSW) 5,198 10.7 -23.6°
Drops below altitude 10° 22:26:45 10° 176° (S) 5,769 - -23.8°
Sets 22:32:10 0° 163° (SSE) 6,450 - -24.0°
